Location: Nelson
(41.2830°S, 173.2830°E)
Time: 00:04:31
(UTC+13:00)

ISS - Visible Passes

Search period start: 29 November 2023 00:00
Search period end: 09 December 2023 00:00
Orbit: 417 x 417 km, 51.6° (Epoch: 28 November)

Date Brightness Start Highest point End Pass type
(mag) Time Alt. Az. Time Alt. Az. Time Alt. Az.
29 Nov -2.5 03:03:50 36° E 03:03:50 36° E 03:06:10 10° ESE visible
29 Nov -2.0 04:36:46 10° W 04:39:45 27° SSW 04:42:45 10° SE visible
30 Nov -0.9 02:17:09 13° ESE 02:17:09 13° ESE 02:17:39 10° ESE visible
30 Nov -2.6 03:50:02 27° WSW 03:51:20 38° SSW 03:54:35 10° SE visible
01 Dec -3.1 03:03:16 56° S 03:03:16 56° S 03:06:20 10° SE visible
01 Dec -1.2 04:37:47 10° WSW 04:40:13 18° SSW 04:42:40 10° SSE visible
02 Dec -1.7 02:16:24 25° ESE 02:16:24 25° ESE 02:17:58 10° SE visible
02 Dec -1.5 03:49:16 12° WSW 03:51:38 22° SSW 03:54:23 10° SE visible
03 Dec -0.6 01:29:27 10° ESE 01:29:27 10° ESE 01:29:27 10° ESE visible
03 Dec -2.0 03:02:19 26° SW 03:03:02 28° SSW 03:06:04 10° SE visible
03 Dec -0.9 04:38:36 10° SW 04:40:38 15° S 04:42:39 10° SSE visible
04 Dec -2.0 02:15:15 34° S 02:15:15 34° S 02:17:43 10° SE visible
04 Dec -0.9 03:49:41 10° SW 03:51:53 16° S 03:54:06 10° SSE visible
05 Dec -1.3 01:28:05 20° SE 01:28:05 20° SE 01:29:17 10° SE visible
05 Dec -1.1 03:00:56 11° WSW 03:03:08 18° SSW 03:05:38 10° SSE visible
05 Dec -0.8 04:38:47 10° SSW 04:40:53 15° S 04:42:59 10° SE visible
06 Dec -1.5 02:13:37 21° SW 02:14:22 23° SSW 02:17:10 10° SE visible
06 Dec -0.7 03:50:03 10° SW 03:52:03 14° S 03:54:03 10° SE visible
07 Dec -1.7 01:26:07 28° S 01:26:07 28° S 01:28:41 10° SE visible
07 Dec -0.7 03:01:07 10° SW 03:03:10 15° S 03:05:13 10° SSE visible
07 Dec -0.8 04:38:19 10° SSW 04:40:54 19° SSE 04:43:28 10° ESE visible
08 Dec -1.7 00:38:18 27° SSE 00:38:18 27° SSE 00:40:09 10° SE visible
08 Dec -0.7 02:12:00 10° SW 02:14:16 16° S 02:16:31 10° SSE visible
08 Dec -0.6 03:49:43 10° SSW 03:52:01 17° S 03:54:18 10° SE visible
08 Dec -2.0 23:49:49 27° SE 23:49:49 27° SE 23:51:32 10° SE visible
